Date String (YYYY-MM-DD hh:mm:ss) UTC,Instrument flags,Ambient pressure (hPa),Sample flow (lpm),Bypass flow (lpm),Sample temperature (°C),Ambient temperature (°C),ASC tube jacket temperature (°C),LED temperature (°C),Box temperature (°C),Sample RH (%),Span deviation,Mass concentration (μg/m³),Mass concentration (μg/m³),Mass concentration (μg/m³)
DateTimeUTC,F1_M11,P_M11,Q1_M11,Q2_M11,T1_M11,T2_M11,T3_M11,T4_M11,T5_M11,U1_M11,ZSPAN_M11,X0_M11,X2_M11,X1_M11
2022-03-07 10:00:00,,0829.5,5.00,0.00,22.0,21.3,00.0,31.2,23.5,07.5,0000.0,0005.85,0003.90,0003.71
2022-03-07 10:01:00,,0829.5,5.00,0.00,21.9,21.1,00.0,31.1,23.5,07.5,0000.0,0005.87,0003.92,0003.73
2022-03-07 10:02:00,,0829.5,5.00,0.00,21.9,21.0,00.0,31.1,23.4,07.5,0000.0,0005.88,0003.91,0003.73
2022-03-07 10:03:00,,0829.5,4.99,0.00,21.9,21.3,00.0,31.1,23.4,07.5,0000.0,0005.86,0003.93,0003.75
2022-03-07 10:04:00,,0829.5,5.01,0.00,22.0,22.0,00.0,31.1,23.7,07.4,0000.0,0005.21,0003.93,0003.76
2022-03-07 10:05:00,,0829.5,5.00,0.00,22.1,22.6,00.0,31.2,24.0,07.3,0000.0,0005.24,0003.95,0003.76
2022-03-07 10:06:00,,0829.5,5.01,0.00,22.3,23.0,00.0,31.2,24.2,07.2,0000.0,0005.30,0003.97,0003.78
2022-03-07 10:07:00,,0829.5,5.00,0.00,22.3,22.7,00.0,31.2,24.1,07.1,0000.0,0005.33,0003.98,0003.78
2022-03-07 10:08:00,,0829.5,4.99,0.00,22.2,22.3,00.0,31.2,24.0,07.1,0000.0,0005.33,0003.98,0003.78
2022-03-07 10:09:00,,0829.5,5.01,0.00,22.2,22.0,00.0,31.2,23.9,07.1,0000.0,0005.41,0003.98,0003.77
2022-03-07 10:10:00,,0829.5,5.00,0.00,22.1,21.7,00.0,31.2,23.7,07.1,0000.0,0005.35,0003.95,0003.75
2022-03-07 10:11:00,,0829.5,4.99,0.00,22.0,21.5,00.0,31.1,23.6,07.1,0000.0,0005.26,0003.93,0003.74
2022-03-07 10:12:00,,0829.5,4.99,0.00,22.0,21.3,00.0,31.1,23.5,07.1,0000.0,0005.28,0003.94,0003.75
2022-03-07 10:13:00,,0829.5,5.02,0.00,21.9,21.1,00.0,31.1,23.4,07.1,0000.0,0005.18,0003.94,0003.75
2022-03-07 10:14:00,,0829.5,5.00,0.00,21.8,21.0,00.0,31.1,23.3,07.2,0000.0,0005.17,0003.93,0003.75
2022-03-07 10:15:00,,0829.5,5.00,0.00,21.9,21.4,00.0,31.1,23.4,07.1,0000.0,0005.15,0003.92,0003.75
2022-03-07 10:16:00,,0829.5,5.00,0.00,22.0,22.2,00.0,31.1,23.8,07.1,0000.0,0005.07,0003.90,0003.76
2022-03-07 10:17:00,,0829.5,5.01,0.00,22.1,22.8,00.0,31.1,24.0,07.0,0000.0,0005.03,0003.90,0003.77
2022-03-07 10:18:00,,0829.5,4.99,0.00,22.2,22.9,00.0,31.2,24.1,07.0,0000.0,0005.04,0003.91,0003.78
2022-03-07 10:19:00,,0829.5,5.00,0.00,22.2,22.6,00.0,31.2,24.1,07.0,0000.0,0005.12,0003.92,0003.79
2022-03-07 10:20:00,,0829.5,4.99,0.00,22.2,22.2,00.0,31.2,23.9,07.0,0000.0,0005.05,0003.92,0003.80
2022-03-07 10:21:00,,0829.4,5.01,0.00,22.1,21.9,00.0,31.1,23.8,07.0,0000.0,0005.03,0003.92,0003.82
2022-03-07 10:22:00,,0829.4,5.01,0.00,22.1,21.7,00.0,31.1,23.7,06.9,0000.0,0005.04,0003.93,0003.83
2022-03-07 10:23:00,,0829.4,5.00,0.00,22.0,21.5,00.0,31.1,23.6,06.9,0000.0,0005.08,0003.94,0003.83
2022-03-07 10:24:00,,0829.4,5.00,0.00,21.9,21.3,00.0,31.1,23.5,06.9,0000.0,0005.57,0003.95,0003.84
2022-03-07 10:25:00,,0829.5,5.00,0.00,21.9,21.1,00.0,31.1,23.4,06.9,0000.0,0005.70,0003.94,0003.84
2022-03-07 10:26:00,,0829.5,5.00,0.00,21.8,21.1,00.0,31.1,23.3,07.0,0000.0,0005.70,0003.95,0003.85
2022-03-07 10:27:00,,0829.6,5.01,0.00,21.9,21.7,00.0,31.1,23.5,06.9,0000.0,0005.75,0003.97,0003.87
2022-03-07 10:28:00,,0829.5,5.00,0.00,22.0,22.4,00.0,31.1,23.8,06.9,0000.0,0005.77,0003.98,0003.87
2022-03-07 10:29:00,,0829.5,4.99,0.00,22.2,23.0,00.0,31.1,24.1,06.9,0000.0,0005.72,0003.97,0003.88
2022-03-07 10:30:00,,0829.5,5.00,0.00,22.2,22.8,00.0,31.1,24.1,06.9,0000.0,0005.71,0003.99,0003.90
2022-03-07 10:31:00,,0829.5,5.00,0.00,22.2,22.5,00.0,31.1,24.0,06.9,0000.0,0005.81,0004.04,0003.93
2022-03-07 10:32:00,,0829.6,4.99,0.00,22.2,22.1,00.0,31.1,23.9,06.9,0000.0,0005.88,0004.07,0003.95
2022-03-07 10:33:00,,0829.5,5.01,0.00,22.1,21.8,00.0,31.1,23.7,06.9,0000.0,0005.94,0004.09,0003.97
2022-03-07 10:34:00,,0829.5,4.99,0.00,22.0,21.6,00.0,31.1,23.6,06.9,0000.0,0006.33,0004.12,0003.99
2022-03-07 10:35:00,,0829.5,5.00,0.00,22.0,21.4,00.0,31.1,23.5,07.0,0000.0,0006.28,0004.14,0004.01
2022-03-07 10:36:00,,0829.5,5.01,0.00,21.9,21.2,00.0,31.1,23.4,07.0,0000.0,0006.15,0004.16,0004.03
2022-03-07 10:37:00,,0829.5,5.00,0.00,21.8,21.1,00.0,31.0,23.3,07.0,0000.0,0006.09,0004.14,0004.02
2022-03-07 10:38:00,,0829.5,4.99,0.00,21.9,21.5,00.0,31.1,23.5,06.9,0000.0,0006.08,0004.15,0004.03
2022-03-07 10:39:00,,0829.5,5.01,0.00,22.0,22.2,00.0,31.1,23.8,06.8,0000.0,0006.11,0004.17,0004.05
2022-03-07 10:40:00,,0829.5,5.00,0.00,22.1,22.9,00.0,31.1,24.0,06.8,0000.0,0006.14,0004.18,0004.06
2022-03-07 10:41:00,,0829.5,5.00,0.00,22.2,22.9,00.0,31.1,24.1,06.7,0000.0,0006.14,0004.18,0004.06
2022-03-07 10:42:00,,0829.6,4.98,0.00,22.2,22.5,00.0,31.1,24.0,06.7,0000.0,0006.05,0004.16,0004.06
2022-03-07 10:43:00,,0829.6,5.01,0.00,22.2,22.2,00.0,31.1,23.9,06.8,0000.0,0006.07,0004.16,0004.06
2022-03-07 10:44:00,,0829.6,4.99,0.00,22.1,21.8,00.0,31.1,23.7,06.8,0000.0,0006.03,0004.15,0004.05
2022-03-07 10:45:00,,0829.5,5.01,0.00,22.0,21.5,00.0,31.1,23.5,06.8,0000.0,0005.62,0004.13,0004.05
2022-03-07 10:46:00,,0829.5,5.00,0.00,21.9,21.3,00.0,31.1,23.5,06.9,0000.0,0005.29,0004.14,0004.06
2022-03-07 10:47:00,,0829.5,5.00,0.00,21.9,21.1,00.0,31.1,23.4,06.9,0000.0,0005.36,0004.14,0004.07
2022-03-07 10:48:00,,0829.5,5.00,0.00,21.8,21.0,00.0,31.0,23.3,06.9,0000.0,0005.40,0004.14,0004.07
2022-03-07 10:49:00,,0829.5,5.00,0.00,21.8,21.3,00.0,31.0,23.4,06.9,0000.0,0005.42,0004.15,0004.07
2022-03-07 10:50:00,,0829.6,4.99,0.00,22.0,22.1,00.0,31.1,23.7,06.8,0000.0,0005.47,0004.16,0004.06
2022-03-07 10:51:00,,0829.6,5.00,0.00,22.1,22.8,00.0,31.1,24.0,06.8,0000.0,0005.52,0004.16,0004.05
2022-03-07 10:52:00,,0829.5,5.01,0.00,22.2,22.9,00.0,31.1,24.1,06.7,0000.0,0005.49,0004.14,0004.03
2022-03-07 10:53:00,,0829.5,5.00,0.00,22.2,22.6,00.0,31.1,24.0,06.7,0000.0,0005.52,0004.14,0004.02
2022-03-07 10:54:00,,0829.5,4.99,0.00,22.2,22.3,00.0,31.1,23.9,06.7,0000.0,0005.47,0004.13,0004.01
2022-03-07 10:55:00,,0829.5,5.01,0.00,22.1,22.0,00.0,31.1,23.8,06.7,0000.0,0005.49,0004.13,0004.01
2022-03-07 10:56:00,,0829.5,5.01,0.00,22.1,21.7,00.0,31.1,23.7,06.7,0000.0,0005.44,0004.13,0004.02
2022-03-07 10:57:00,,0829.5,4.98,0.00,22.0,21.5,00.0,31.1,23.6,06.7,0000.5,0005.44,0004.14,0004.02
2022-03-07 10:58:00,,0829.5,5.00,0.00,21.9,21.3,00.0,31.1,23.5,06.7,0000.0,0005.33,0004.13,0004.01
2022-03-07 10:59:00,,0829.5,5.01,0.00,21.9,21.1,00.0,31.0,23.4,06.6,0000.0,0005.29,0004.15,0004.03
